CW3577 Weather Reports


Display with metric or nautical units.
time (UTC)temp
F
wind
direction
speed
MPH
gust
MPH
rain 1hr
in
rain 24hr
in
rain mn
in
humidity
%
barometer
mb
20260503184503 53 305 6.0 23.0 0.00 0.10 0.01 43 1006.7
20260503183022 54 327 6.0 18.0 0.00 0.10 0.01 43 1006.7
20260503181546 53 10 7.0 14.0 0.00 0.10 0.01 45 1006.7
20260503180015 53 355 6.0 19.0 0.00 0.10 0.01 48 1006.8
20260503174543 52 309 8.0 16.0 0.00 0.10 0.01 47 1006.8
20260503173058 51 42 2.0 23.0 0.00 0.10 0.01 55 1006.9
20260503171520 51 322 9.0 20.0 0.00 0.10 0.01 52 1007.0
20260503100106 41 318 2.0 6.0 0.00 0.26 0.00 87 1007.8
20260503081520 42 309 1.0 8.0 0.00 0.26 0.00 88 1008.9
20260503071541 42 305 2.0 6.0 0.00 0.26 0.00 92 1009.2
20260503054549 43 314 0.0 3.0 0.00 0.26 0.00 92 1010.2
20260503053005 43 324 1.0 3.0 0.00 0.26 0.00 92 1010.4
20260503051533 43 325 0.0 5.0 0.00 0.26 0.00 92 1010.4
20260503050053 44 355 1.0 3.0 0.00 0.26 0.00 92 1010.7
20260503044519 44 330 0.0 5.0 0.00 0.26 0.00 92 1010.7
20260503043039 44 304 2.0 4.0 0.00 0.26 0.00 92 1010.9
20260503041502 44 317 1.0 5.0 0.00 0.26 0.00 92 1011.2
20260503040024 45 309 0.0 3.0 0.00 0.26 0.26 93 1011.2
20260503034559 45 5 0.0 2.0 0.00 0.26 0.26 93 1011.1
20260503033058 45 5 0.0 1.0 0.00 0.26 0.26 93 1011.4
20260503031521 45 5 0.0 1.0 0.00 0.26 0.26 92 1011.3
20260503030046 45 5 0.0 0.0 0.00 0.26 0.26 91 1011.2
20260503024511 45 5 0.0 0.0 0.00 0.26 0.26 91 1011.1
20260503023035 46 5 0.0 1.0 0.00 0.26 0.26 91 1011.1
20260503021559 46 17 0.0 0.0 0.00 0.26 0.26 91 1011.4
20260503020021 47 360 0.0 1.0 0.00 0.26 0.26 91 1011.3
20260503014543 47 360 0.0 0.0 0.00 0.26 0.26 91 1011.4
20260503013001 48 360 0.0 1.0 0.00 0.26 0.26 90 1011.4
20260503011529 48 12 0.0 2.0 0.00 0.26 0.26 90 1011.3
20260503010051 48 5 1.0 2.0 0.00 0.26 0.26 90 1011.2
20260503004517 49 5 0.0 2.0 0.00 0.26 0.26 90 1011.3
20260503003053 49 5 0.0 3.0 0.00 0.26 0.26 90 1011.2
20260503001502 49 29 1.0 4.0 0.00 0.26 0.26 89 1011.2
20260503000026 49 349 3.0 4.0 0.00 0.26 0.26 90 1011.2
20260502234550 50 289 0.0 4.0 0.00 0.26 0.26 90 1011.0
20260502233022 50 234 0.0 3.0 0.00 0.26 0.26 90 1011.0
20260502231535 50 199 0.0 1.0 0.00 0.26 0.26 90 1010.8
20260502230059 50 192 0.0 1.0 0.00 0.26 0.26 90 1010.7
20260502224520 50 186 0.0 3.0 0.00 0.26 0.26 91 1010.6
20260502223047 49 157 0.0 2.0 0.01 0.26 0.26 90 1010.4
20260502221511 49 176 1.0 3.0 0.04 0.26 0.26 89 1010.3
20260502220036 49 238 0.0 1.0 0.07 0.26 0.26 89 1010.6
20260502214603 49 238 1.0 3.0 0.09 0.26 0.26 88 1010.5
20260502214508 49 238 1.0 3.0 0.09 0.26 0.26 88 1010.5
20260502213026 50 242 1.0 2.0 0.08 0.25 0.25 85 1010.7
20260502211554 50 242 0.0 3.0 0.05 0.22 0.22 84 1010.8
20260502210014 52 292 0.0 2.0 0.01 0.18 0.18 80 1010.7
20260502204539 52 293 1.0 4.0 0.00 0.17 0.17 76 1010.5
20260502203058 52 304 1.0 3.0 0.00 0.17 0.17 75 1010.5
20260502201528 52 290 1.0 3.0 0.00 0.17 0.17 73 1010.5
20260502200044 53 355 1.0 9.0 0.00 0.17 0.17 72 1010.7
20260502194510 54 270 5.0 10.0 0.00 0.17 0.17 70 1010.6
20260502193035 55 315 4.0 10.0 0.00 0.17 0.17 68 1010.7
20260502191600 57 189 4.0 8.0 0.00 0.17 0.17 56 1010.6
20260502191502 57 190 4.0 8.0 0.00 0.17 0.17 56 1010.6
20260502190020 57 232 2.0 6.0 0.00 0.17 0.17 58 1010.5